FW5295 Weather Reports


time (UTC)temp
F
wind
direction
speed
knots
gust
knots
rain 1hr
in
rain 24hr
in
rain mn
in
humidity
%
barometer
mb
20260508190147 65 309 1.7 5.2 0.00 0.02 0.00 46 1007.4
20260508185647 65 262 1.7 7.8 0.00 0.02 0.00 47 1007.4
20260508185146 65 309 4.3 7.8 0.00 0.02 0.00 47 1007.4
20260508184646 65 231 0.0 5.2 0.00 0.02 0.00 45 1007.0
20260508184145 65 153 3.5 5.2 0.00 0.02 0.00 49 1007.4
20260508183647 65 298 2.6 6.1 0.00 0.02 0.00 42 1007.4
20260508183145 65 228 3.5 7.0 0.00 0.02 0.00 47 1007.4
20260508182645 65 175 3.5 7.8 0.00 0.02 0.00 53 1007.7
20260508182147 64 172 4.3 7.8 0.00 0.02 0.00 51 1007.7
20260508181642 64 99 3.5 5.2 0.00 0.02 0.00 52 1007.7
20260508181142 64 212 0.9 5.2 0.00 0.02 0.00 53 1008.0
20260508180640 63 170 3.5 5.2 0.00 0.02 0.00 52 1007.7
20260508180141 64 192 3.5 9.6 0.00 0.02 0.00 51 1008.0
20260508175907 63 100 1.7 9.6 0.00 0.02 0.00 50 1008.0
20260508175140 63 231 3.5 7.8 0.00 0.02 0.00 52 1008.0
20260508174858 63 247 2.6 7.8 0.00 0.02 0.00 46 1008.0
20260508174138 63 202 2.6 7.8 0.00 0.02 0.00 49 1008.4
20260508173638 63 92 2.6 7.0 0.00 0.02 0.00 51 1008.4
20260508173405 62 134 3.5 7.8 0.00 0.02 0.00 54 1008.0
20260508172639 62 46 0.9 9.6 0.00 0.02 0.00 51 1008.4
20260508172139 62 162 5.2 7.8 0.00 0.02 0.00 50 1008.7
20260508171637 62 163 4.3 8.7 0.00 0.02 0.00 51 1008.7
20260508171135 62 116 7.0 8.7 0.00 0.02 0.00 48 1008.7
20260508170636 62 183 3.5 7.0 0.00 0.02 0.00 47 1008.7
20260508170134 62 109 2.6 7.8 0.00 0.02 0.00 45 1008.7
20260508165633 62 129 7.8 7.8 0.00 0.02 0.00 49 1008.7
20260508165133 62 193 0.9 7.0 0.00 0.02 0.00 43 1008.7
20260508164633 62 118 3.5 6.1 0.00 0.02 0.00 47 1009.1
20260508164133 62 154 3.5 7.0 0.00 0.02 0.00 47 1009.1
20260508163633 62 178 3.5 7.0 0.00 0.02 0.00 43 1009.4
20260508163358 61 238 0.0 7.0 0.00 0.02 0.00 47 1009.4
20260508162631 61 250 1.7 7.0 0.00 0.02 0.00 42 1009.4
20260508162133 61 177 3.5 7.8 0.00 0.02 0.00 43 1009.1
20260508161629 61 166 2.6 7.8 0.00 0.02 0.00 45 1009.4
20260508161130 60 134 1.7 7.8 0.00 0.02 0.00 46 1009.4
20260508160628 60 112 4.3 7.0 0.00 0.02 0.00 46 1009.8
20260508160128 60 145 3.5 8.7 0.00 0.02 0.00 43 1009.1
20260508155627 60 43 2.6 8.7 0.00 0.02 0.00 45 1009.4
20260508155352 60 213 3.5 7.8 0.00 0.02 0.00 48 1009.4
20260508154626 59 98 4.3 9.6 0.00 0.02 0.00 48 1009.8
20260508154126 60 127 4.3 9.6 0.00 0.02 0.00 48 1009.8
20260508153627 60 179 2.6 7.8 0.00 0.02 0.00 50 1009.8
20260508153125 59 81 0.0 7.8 0.00 0.02 0.00 49 1009.8
20260508152626 59 113 3.5 7.8 0.00 0.02 0.00 46 1009.8
20260508152125 59 137 3.5 7.8 0.00 0.02 0.00 44 1009.8
20260508151626 59 149 4.3 6.1 0.00 0.02 0.00 53 1009.8
20260508151348 58 185 1.7 6.1 0.00 0.02 0.00 56 1009.8
20260508150623 58 183 3.5 7.8 0.00 0.02 0.00 54 1009.8
20260508150123 57 165 2.6 7.8 0.00 0.02 0.00 58 1009.8
20260508145626 57 155 2.6 7.8 0.00 0.02 0.00 55 1010.2
20260508145121 56 97 1.7 7.8 0.00 0.02 0.00 58 1010.2
20260508144620 56 126 5.2 7.8 0.00 0.02 0.00 59 1010.2
20260508144121 55 159 7.0 8.7 0.00 0.02 0.00 62 1010.2
20260508143618 55 121 2.6 8.7 0.00 0.02 0.00 64 1010.2
20260508143343 54 123 7.0 7.8 0.00 0.02 0.00 67 1010.2
20260508142618 54 105 2.6 7.0 0.00 0.02 0.00 67 1009.8
20260508142118 53 135 5.2 6.1 0.00 0.02 0.00 71 1010.5
20260508141632 53 139 3.5 7.8 0.00 0.02 0.00 71 1010.2
20260508141117 53 130 3.5 7.8 0.00 0.02 0.00 70 1010.5
20260508140615 53 132 2.6 6.1 0.00 0.02 0.00 72 1010.2
20260508140121 52 127 4.3 7.0 0.00 0.02 0.00 76 1010.2
20260508135615 52 149 5.2 7.0 0.00 0.02 0.00 73 1010.2
20260508135114 51 156 2.6 7.8 0.00 0.02 0.00 76 1010.5
20260508134845 51 120 2.6 7.8 0.00 0.02 0.00 76 1010.2
20260508134331 50 118 5.2 6.1 0.00 0.02 0.00 79 1010.2
20260508133614 50 159 3.5 6.1 0.00 0.02 0.00 79 1010.2
20260508133114 49 123 2.6 5.2 0.00 0.02 0.00 81 1010.2
20260508132837 49 76 3.5 5.2 0.00 0.02 0.00 81 1010.2
20260508132330 49 125 2.6 5.2 0.00 0.02 0.00 82 1010.2
20260508131611 48 93 3.5 6.1 0.00 0.02 0.00 83 1010.2
20260508131112 47 81 3.5 6.1 0.00 0.02 0.00 84 1009.8
20260508130610 47 82 4.3 5.2 0.00 0.02 0.00 85 1010.5
20260508130113 47 82 4.3 5.2 0.00 0.02 0.00 88 1010.2
20260508125608 46 108 2.6 4.3 0.00 0.02 0.00 88 1010.2
20260508125109 46 82 4.3 4.3 0.00 0.02 0.00 90 1010.2
20260508124606 45 85 2.6 3.5 0.00 0.02 0.00 91 1010.2
20260508124107 44 128 2.6 4.3 0.00 0.02 0.00 92 1010.2
20260508123606 44 110 1.7 7.0 0.00 0.02 0.00 93 1010.2
20260508123330 43 104 3.5 7.0 0.00 0.02 0.00 93 1010.2
20260508122606 43 82 2.6 5.2 0.00 0.02 0.00 94 1010.2
20260508122107 42 129 2.6 4.3 0.00 0.02 0.00 95 1010.5
20260508121824 42 87 2.6 4.3 0.00 0.02 0.00 96 1010.5
20260508121104 42 166 2.6 3.5 0.00 0.02 0.00 96 1010.5
20260508120604 41 108 1.7 3.5 0.00 0.02 0.00 97 1010.2
20260508120115 41 99 2.6 4.3 0.00 0.02 0.00 97 1010.5
20260508115604 41 78 2.6 5.2 0.00 0.02 0.00 97 1010.2
20260508115103 41 65 4.3 5.2 0.00 0.02 0.00 97 1010.2
20260508114821 40 57 2.6 4.3 0.00 0.02 0.00 97 1010.2
20260508114102 40 69 1.7 2.6 0.00 0.02 0.00 97 1010.2
20260508113825 39 64 0.9 1.7 0.00 0.02 0.00 97 1010.5
20260508113327 39 122 0.0 1.7 0.00 0.02 0.00 97 1010.2
20260508112559 39 149 0.9 2.6 0.00 0.02 0.00 97 1010.2
20260508112058 38 111 0.0 2.6 0.00 0.02 0.00 97 1010.2
20260508111558 38 76 0.0 1.7 0.00 0.02 0.00 97 1010.2
20260508111057 38 19 1.7 1.7 0.00 0.02 0.00 97 1009.8
20260508110107 37 66 0.0 1.7 0.00 0.02 0.00 96 1009.8
20260508105556 37 32 1.7 1.7 0.00 0.02 0.00 96 1009.8
20260508105055 37 101 0.9 0.9 0.00 0.02 0.00 96 1009.8
20260508104815 37 108 0.0 0.9 0.00 0.02 0.00 96 1009.8
20260508104055 37 44 0.0 1.7 0.00 0.02 0.00 96 1009.8
20260508103554 37 32 0.0 2.6 0.00 0.02 0.00 96 1009.8
20260508103053 37 50 1.7 2.6 0.00 0.02 0.00 96 1009.8
20260508102557 37 16 0.9 1.7 0.00 0.02 0.00 96 1009.8
20260508102052 38 15 0.9 1.7 0.00 0.02 0.00 96 1009.8
20260508101818 37 5 1.7 1.7 0.00 0.02 0.00 96 1009.8
20260508101053 37 53 0.0 1.7 0.00 0.02 0.00 96 1009.8
20260508100550 37 13 1.7 1.7 0.00 0.02 0.00 96 1009.8
20260508100327 37 25 0.9 1.7 0.00 0.02 0.00 95 1010.2
20260508095550 37 48 0.0 0.9 0.00 0.02 0.00 95 1009.8
20260508095050 37 119 0.0 0.9 0.00 0.02 0.00 95 1009.8
20260508094548 37 72 0.0 0.9 0.00 0.02 0.00 95 1010.2
20260508094048 37 147 0.0 1.7 0.00 0.02 0.00 95 1010.2
20260508093809 38 112 0.0 1.7 0.00 0.02 0.00 95 1010.2
20260508093046 38 55 0.0 0.0 0.00 0.02 0.00 95 1010.2
20260508092547 38 55 0.0 0.0 0.00 0.02 0.00 95 1010.5
20260508092045 38 55 0.0 0.9 0.00 0.02 0.00 95 1010.2
20260508091546 38 55 0.0 1.7 0.00 0.02 0.00 95 1010.2
20260508091044 38 69 0.0 1.7 0.00 0.02 0.00 95 1010.2
20260508090601 38 34 1.7 1.7 0.00 0.02 0.00 95 1010.2
20260508090044 38 38 1.7 1.7 0.00 0.02 0.00 94 1010.5
20260508085546 38 44 0.0 0.0 0.00 0.02 0.00 94 1010.2
20260508085043 38 44 0.0 1.7 0.00 0.02 0.00 94 1010.5
20260508084544 38 315 0.0 1.7 0.00 0.02 0.00 94 1010.5
20260508084049 38 46 0.9 1.7 0.00 0.02 0.00 94 1010.2
20260508084042 38 32 0.0 1.7 0.00 0.02 0.00 94 1010.2
20260508082840 39 89 0.0 2.6 0.00 0.02 0.00 93 1010.2
20260508082601 39 25 0.0 2.6 0.00 0.02 0.00 93 1010.5
20260508081841 39 24 1.7 1.7 0.00 0.02 0.00 93 1010.9
20260508081338 39 32 0.0 1.7 0.00 0.02 0.00 93 1010.5
20260508080840 39 60 0.0 1.7 0.00 0.02 0.00 93 1010.5
20260508080337 39 35 0.0 1.7 0.00 0.02 0.00 93 1010.9
20260508075837 39 76 0.0 0.9 0.00 0.02 0.00 93 1010.5
20260508075558 39 72 0.0 1.7 0.00 0.02 0.00 92 1010.5
20260508074836 39 19 0.0 1.7 0.00 0.02 0.00 92 1010.5
20260508074334 39 13 0.0 1.7 0.00 0.02 0.00 92 1010.9
20260508073840 39 32 0.0 1.7 0.00 0.02 0.00 91 1010.5
20260508073334 39 26 1.7 1.7 0.00 0.02 0.00 91 1010.9
20260508072835 40 5 1.7 1.7 0.00 0.02 0.00 90 1010.9
20260508072334 40 12 1.7 1.7 0.00 0.02 0.00 90 1010.9
20260508072054 40 47 0.9 1.7 0.00 0.02 0.00 90 1010.9
20260508071333 40 34 0.9 1.7 0.00 0.02 0.00 89 1010.9
20260508070832 40 29 1.7 1.7 0.00 0.02 0.00 89 1010.9
20260508070333 40 35 0.9 1.7 0.00 0.02 0.00 88 1010.9
20260508065832 41 66 0.0 1.7 0.00 0.02 0.00 88 1011.2
20260508065331 41 341 0.9 1.7 0.00 0.02 0.00 88 1010.9
20260508064829 41 298 0.9 1.7 0.00 0.02 0.00 88 1010.9
20260508064330 41 304 0.0 1.7 0.00 0.02 0.00 88 1011.2
20260508063832 41 326 0.0 2.6 0.00 0.02 0.00 87 1010.9
20260508063550 41 29 2.6 2.6 0.00 0.02 0.00 86 1010.9
20260508062830 41 320 1.7 2.6 0.00 0.02 0.00 85 1011.2
20260508062326 40 355 1.7 2.6 0.00 0.02 0.00 84 1010.9
20260508061826 40 343 0.9 2.6 0.00 0.02 0.00 83 1010.9
20260508061559 41 354 0.9 1.7 0.00 0.02 0.00 82 1011.2
20260508061318 41 322 1.7 1.7 0.00 0.02 0.00 81 1010.9
20260508060325 41 350 0.9 1.7 0.00 0.02 0.00 80 1010.9
20260508060043 42 324 0.9 1.7 0.00 0.02 0.00 80 1010.9
20260508055324 42 328 0.9 1.7 0.00 0.02 0.00 80 1010.9
20260508054823 42 323 0.9 1.7 0.00 0.02 0.00 79 1010.9
20260508054322 42 358 0.9 1.7 0.00 0.02 0.00 79 1010.9
20260508053823 42 343 0.9 1.7 0.00 0.02 0.00 79 1010.9
20260508053547 42 356 1.7 2.6 0.00 0.02 0.00 78 1010.9
20260508052823 42 352 1.7 2.6 0.00 0.02 0.00 78 1010.5
20260508052321 42 350 1.7 2.6 0.00 0.02 0.00 78 1010.5
20260508051821 42 354 1.7 1.7 0.00 0.02 0.00 80 1010.9
20260508051319 42 8 1.7 2.6 0.00 0.02 0.00 81 1010.9
20260508050818 42 25 1.7 2.6 0.00 0.02 0.00 81 1010.5
20260508050318 42 329 0.0 1.7 0.00 0.02 0.00 82 1010.9
20260508045818 42 10 0.0 1.7 0.00 0.02 0.02 82 1010.5
20260508045318 42 218 0.0 0.9 0.00 0.02 0.02 82 1010.5
20260508044820 42 175 0.0 0.9 0.00 0.02 0.02 82 1010.9
20260508044316 43 150 0.0 0.9 0.00 0.02 0.02 81 1010.5
20260508043817 43 135 0.0 3.5 0.00 0.02 0.02 80 1010.5
20260508043314 44 131 0.0 3.5 0.00 0.02 0.02 79 1010.5
20260508043257 44 153 3.5 3.5 0.00 0.02 0.02 78 1010.5
20260508042312 44 143 1.7 1.7 0.00 0.02 0.02 77 1010.5
20260508041815 45 55 0.0 1.7 0.00 0.02 0.02 77 1010.5
20260508041313 45 26 0.9 1.7 0.00 0.02 0.02 77 1010.2
20260508040812 45 24 0.9 1.7 0.00 0.02 0.02 76 1010.2
20260508040311 45 44 0.0 0.9 0.00 0.02 0.02 77 1010.2
20260508035812 45 39 0.0 1.7 0.00 0.02 0.02 78 1010.2
20260508035311 46 32 0.0 1.7 0.00 0.02 0.02 80 1010.2
20260508034810 46 25 1.7 3.5 0.00 0.02 0.02 80 1010.2
20260508034309 46 17 0.0 3.5 0.00 0.02 0.02 80 1009.8
20260508033809 46 30 0.9 1.7 0.00 0.02 0.02 77 1009.8
20260508033310 46 30 0.9 1.7 0.00 0.02 0.02 74 1009.8
20260508032810 46 43 0.9 1.7 0.00 0.02 0.02 73 1009.8
20260508032308 46 32 0.9 1.7 0.00 0.02 0.02 75 1009.8
20260508031808 46 34 0.9 1.7 0.00 0.02 0.02 75 1009.8
20260508031306 46 46 0.9 1.7 0.00 0.02 0.02 76 1009.8
20260508031031 46 44 0.0 0.9 0.00 0.02 0.02 76 1009.8
20260508030530 46 44 0.0 0.9 0.00 0.02 0.02 76 1009.8
20260508025810 46 13 0.0 0.9 0.00 0.02 0.02 77 1009.8
20260508025528 46 32 0.0 1.7 0.00 0.02 0.02 77 1010.2
20260508024805 46 38 0.9 1.7 0.00 0.02 0.02 77 1009.8
20260508024303 46 28 0.0 1.7 0.00 0.02 0.02 78 1009.8
20260508023803 46 35 0.9 1.7 0.00 0.02 0.02 77 1009.8
20260508023302 46 35 0.9 1.7 0.00 0.02 0.02 78 1009.8
20260508022801 47 21 1.7 1.7 0.00 0.02 0.02 81 1009.4
20260508022302 47 38 0.9 1.7 0.00 0.02 0.02 82 1009.8
20260508021800 47 57 0.9 1.7 0.00 0.02 0.02 81 1009.4
20260508021746 47 22 0.0 1.7 0.00 0.02 0.02 79 1009.4
20260508020802 48 22 0.0 1.7 0.00 0.02 0.02 75 1009.4
20260508020300 48 135 0.0 1.7 0.00 0.02 0.02 74 1009.4
20260508020021 48 235 0.0 1.7 0.00 0.02 0.02 72 1009.4
20260508015257 48 113 0.0 0.9 0.00 0.02 0.02 73 1009.1
20260508014759 49 81 0.0 0.9 0.00 0.02 0.02 73 1009.1
20260508014257 49 76 0.0 0.9 0.00 0.02 0.02 73 1009.1
20260508013758 49 119 0.0 0.9 0.00 0.02 0.02 69 1008.7
20260508013519 50 116 0.0 0.9 0.00 0.02 0.02 71 1008.7
20260508012757 50 89 0.0 1.7 0.00 0.02 0.02 69 1008.7
20260508012254 50 55 0.0 1.7 0.00 0.02 0.02 70 1008.7
20260508011758 51 30 0.9 1.7 0.00 0.02 0.02 73 1008.7
20260508011254 51 49 0.0 1.7 0.00 0.02 0.02 68 1008.7
20260508010753 51 66 0.0 1.7 0.00 0.02 0.02 65 1008.7
20260508010254 52 135 0.0 1.7 0.00 0.02 0.02 67 1008.7
20260508005753 53 159 0.0 1.7 0.00 0.02 0.02 64 1008.7
20260508005252 53 147 0.0 1.7 0.00 0.02 0.02 64 1008.7
20260508004753 54 38 0.0 1.7 0.00 0.02 0.02 68 1008.4
20260508004526 54 44 0.0 0.9 0.00 0.02 0.02 60 1008.4
20260508003750 55 154 0.0 2.6 0.00 0.02 0.02 59 1008.4
20260508003251 55 164 0.0 2.6 0.00 0.02 0.02 55 1008.7
20260508003024 56 185 0.0 1.7 0.00 0.02 0.02 56 1008.4
20260508002249 56 166 0.0 3.5 0.00 0.02 0.02 54 1008.4
20260508001749 56 232 0.9 3.5 0.00 0.02 0.02 53 1008.4
20260508001248 56 116 0.0 3.5 0.00 0.02 0.02 51 1008.4
20260508001009 56 241 0.0 3.5 0.00 0.02 0.02 52 1008.4
20260508000731 56 193 0.0 3.5 0.00 0.02 0.02 53 1008.4
20260507235747 56 157 0.9 3.5 0.00 0.02 0.02 54 1008.7
20260507235245 56 234 0.9 2.6 0.00 0.02 0.02 55 1008.7
20260507234745 56 173 0.0 2.6 0.00 0.02 0.02 55 1008.4
20260507234244 56 185 0.0 2.6 0.00 0.02 0.02 53 1008.7
20260507233745 56 256 0.9 4.3 0.00 0.02 0.02 53 1008.4
20260507233733 56 214 0.0 5.2 0.00 0.02 0.02 54 1008.4
20260507232744 57 245 5.2 5.2 0.00 0.02 0.02 53 1008.7
20260507232243 57 207 1.7 3.5 0.00 0.02 0.02 53 1008.7
20260507232000 58 230 1.7 4.3 0.00 0.02 0.02 53 1008.7
20260507231240 58 223 2.6 4.3 0.00 0.02 0.02 51 1008.7
20260507230743 58 253 3.5 5.2 0.00 0.02 0.02 51 1008.7
20260507230240 58 277 0.9 7.8 0.00 0.02 0.02 51 1008.7
20260507225743 58 232 4.3 8.7 0.00 0.02 0.02 51 1009.1
20260507225239 58 247 3.5 8.7 0.00 0.02 0.02 50 1009.1
20260507224742 58 224 4.3 8.7 0.00 0.02 0.02 50 1009.1
20260507224250 58 198 1.7 5.2 0.00 0.02 0.02 53 1009.1
20260507223752 58 243 3.5 7.8 0.00 0.02 0.02 53 1009.1
20260507223237 58 249 0.9 13.0 0.00 0.02 0.02 50 1009.1
20260507222737 58 252 4.3 13.0 0.00 0.02 0.02 52 1009.1
20260507222501 57 226 1.7 8.7 0.01 0.02 0.02 53 1009.1
20260507221735 56 190 1.7 5.2 0.01 0.02 0.02 57 1009.1
20260507221234 55 178 4.3 4.3 0.01 0.02 0.02 58 1009.4
20260507220735 55 320 1.7 4.3 0.02 0.02 0.02 59 1009.4
20260507220233 56 271 1.7 4.3 0.02 0.02 0.02 57 1009.1
20260507215733 55 283 2.6 4.3 0.02 0.02 0.02 58 1009.4
20260507215234 55 146 2.6 3.5 0.02 0.02 0.02 59 1009.4
20260507214735 54 203 1.7 3.5 0.02 0.02 0.02 65 1009.1
20260507214231 54 157 0.9 3.5 0.02 0.02 0.02 65 1009.1
20260507213731 52 98 0.9 3.5 0.02 0.02 0.02 70 1009.1
20260507213231 51 60 0.0 7.0 0.02 0.02 0.02 73 1009.1
20260507212732 51 65 4.3 7.0 0.02 0.02 0.02 71 1009.4
20260507212229 51 31 2.6 3.5 0.01 0.01 0.01 73 1009.8
20260507211731 51 180 0.0 7.0 0.01 0.01 0.01 70 1009.8
20260507211230 53 237 3.5 7.0 0.01 0.01 0.01 66 1009.8
20260507210729 53 251 1.7 5.2 0.00 0.00 0.00 62 1009.8
20260507210229 53 321 0.9 5.2 0.00 0.00 0.00 60 1009.8
20260507205948 53 297 1.7 5.2 0.00 0.00 0.00 60 1009.4
20260507205227 53 317 1.7 8.7 0.00 0.00 0.00 60 1009.4
20260507204951 53 273 2.6 8.7 0.00 0.00 0.00 60 1009.1
20260507204225 53 17 2.6 7.0 0.00 0.00 0.00 59 1009.4
20260507203725 54 0 2.6 7.8 0.00 0.00 0.00 56 1009.1
20260507203445 55 260 1.7 8.7 0.00 0.00 0.00 58 1009.4
20260507202726 56 204 0.0 13.9 0.00 0.00 0.00 58 1009.4
20260507202440 58 245 5.2 13.9 0.00 0.00 0.00 50 1009.4
20260507201723 58 268 4.3 11.3 0.00 0.00 0.00 51 1009.1
20260507201222 59 214 2.6 13.9 0.00 0.00 0.00 48 1009.1
20260507200723 60 229 4.3 14.8 0.00 0.00 0.00 46 1009.1
20260507200221 60 240 6.1 14.8 0.00 0.00 0.00 46 1009.1
20260507195941 60 199 3.5 9.6 0.00 0.00 0.00 49 1009.1
20260507195219 59 193 4.3 9.6 0.00 0.00 0.00 47 1009.1
20260507194721 59 214 2.6 7.8 0.00 0.00 0.00 49 1009.4
20260507194219 60 251 4.3 11.3 0.00 0.00 0.00 47 1009.4
20260507193719 59 250 7.8 11.3 0.00 0.00 0.00 48 1009.8
20260507193217 59 249 2.6 8.7 0.00 0.00 0.00 48 1009.8
20260507192719 58 273 4.3 12.2 0.00 0.00 0.00 50 1009.8
20260507192216 60 246 2.6 12.2 0.00 0.00 0.00 48 1009.8
20260507191718 59 219 4.3 9.6 0.00 0.00 0.00 48 1009.8
20260507191216 59 249 2.6 11.3 0.00 0.00 0.00 49 1010.2
20260507190716 59 250 7.0 11.3 0.00 0.00 0.00 52 1010.2